Location: Pouilly
(47.2624°N, 4.5558°E)
Time: 08:12:23
(UTC+00:00)

USA 229 DEB - Pass Details

Date: 07 June 2020
Orbit: 983 x 1229 km, 63.4° (Epoch: 24 June)

Event Time Altitude Azimuth Distance (km) Brightness Sun altitude
Rises 01:06:06 0° 319° (NW) 3,946 7.1 -17.4°
Reaches altitude 10° 01:08:43 10° 320° (NW) 3,019 6.4 -17.2°
Maximum altitude 01:16:01 88° 51° (NE) 1,184 3.9 -16.7°
Drops below altitude 10° 01:23:38 10° 141° (SE) 3,154 5.9 -16.2°
Sets 01:26:26 0° 142° (SE) 4,131 6.5 -16.0°
